This is the latest recevied weather packets stored in our database for station/object GW1601. If no packets are shown the sender has not sent any weather packets the latest 10 day(s).
| Time | Temp. | Humidity | Pressure | Rain* | Wind** | Luminosity | Snow |
|---|---|---|---|---|---|---|---|
| 1777497705 | 14.44° C | 99% | 983.4 hPa | 7.62 mm | - | - | - |
| 1777496959 | 14.44° C | 98% | 983.7 hPa | 7.62 mm | - | - | - |
| 1777495884 | 14.44° C | 98% | 983.4 hPa | 7.62 mm | - | - | - |
| 1777495513 | 14.44° C | 98% | 983.4 hPa | 7.62 mm | - | - | - |
| 1777494076 | 15° C | 97% | 982.7 hPa | 7.62 mm | - | - | - |
| 1777488338 | 17.22° C | 94% | 982.7 hPa | 7.11 mm | - | - | - |
| 1777485827 | 17.22° C | 99% | 982.7 hPa | 7.11 mm | - | - | - |
| 1777483307 | 17.22° C | 99% | 983.4 hPa | 7.11 mm | - | - | - |
| 1777482942 | 16.67° C | 99% | 983 hPa | 7.11 mm | - | - | - |
| 1777480774 | 16.67° C | 99% | 983.7 hPa | 2.29 mm | - | - | - |
| 1777475003 | 17.22° C | 91% | 984 hPa | 0 mm | - | - | - |
| 1777473589 | 16.67° C | 91% | 984 hPa | 0 mm | - | - | - |
| 1777470713 | 16.67° C | 92% | 984.7 hPa | 0 mm | - | - | - |
| 1777469237 | 16.67° C | 92% | 985.1 hPa | 0 mm | - | - | - |
| 1777468902 | 16.11° C | 92% | 984.7 hPa | 0 mm | - | - | - |
| 1777468160 | 16.11° C | 94% | 984.7 hPa | 0 mm | - | - | - |
| 1777463144 | 13.33° C | 99% | 985.1 hPa | 0 mm | - | - | - |
| 1777459181 | 13.33° C | 98% | 985.4 hPa | 0 mm | - | - | - |
| 1777455211 | 13.33° C | 99% | 985.7 hPa | 0 mm | - | - | - |
| 1777454128 | 13.33° C | 99% | 986.1 hPa | 0 mm | - | - | - |
| 1777452313 | 12.78° C | 99% | 985.4 hPa | 0 mm | - | - | - |
| 1777450150 | 12.78° C | 99% | 985.4 hPa | 0 mm | - | - | - |
| 1777449460 | 12.78° C | 99% | 985.4 hPa | 0 mm | - | - | - |
| 1777449099 | 12.78° C | 99% | 985.4 hPa | 0 mm | - | - | - |
| 1777437932 | 13.33° C | 99% | 987.4 hPa | 0 mm | - | - | - |
* Rain since midnight (hover to see other rain measurements)
** Current wind speed in m/s (hover to see current wind gust speed)